STARLINK-5345, 56517

Orbit data source: Space-Track

STARLINK-5345, 56517 is a payload satellite owned by SpaceX/Seattle (US) in LEO that was launched on Sun, 14 May 2023 UTC via an FALCON 9 launch vehicle from the Air Force Eastern Test Range (AFETR). Payload-class satellites include a variety of spacecraft equipped with specific instruments for various scientific and technological missions. These include communications satellites like Starlink; space stations such as the ISS; scientific satellites like the Hubble; Earth observation satellites from companies like Planet Labs, Umbra, and HawkEye 360; GPS; miniature CubeSats for education and research; and military/defense satellites.

Loading next visibility...
Identifier
56517, 2023-065Q
Orbit
LEO
Country
Flag of USUS
Related business
Manufacturer
SpaceX/Seattle
Mission
Operational Commercial Communications
Bus & Motor
STARLINK, Unknown motor
Mass
305 kg wet, ~290 kg dry
Launch date (UTC)
2023-05-14 (3 years ago)
Launch vehicle
FALCON 9
Launch site
Air Force Eastern Test Range (AFETR)
Object type
Payload
Rocket body
Debris
Shape & HBR
Box + 1 Pan, 10.1 m
Radar Cross Section
11.087 m², Large (>1 m²)

Expand to show TLE details & history
Last TLE update: 3 days ago

TLE from 3 days ago
0 STARLINK-5345
1 56517U 23065Q   26170.59494941  .00000037  00000-0  10863-4 0  9993
2 56517  43.0041 357.0645 0000863 262.3458  97.7296 15.27563958172185
Epoch: 2026-06-19T14:16Z
TLE epoch observation values (Epoch: 2026-06-19T14:16:43.629Z)
Latitude
0.00002°
Longitude
-124.93894°
Altitude
482.953 km
Speed
7.626 km/s
True Right ascension
23h 48m 15s
True Declination
0° 00' 00"
Sunlit
Object was in daylight at epoch
Visualization orbit readout
Latitude
Unknown
Longitude
Unknown
Altitude
Unknown
Speed
Unknown
Apparent Right ascension
Unknown
Apparent Declination
Unknown
Sunlit
N/A
Visualization observer readout
Local Sidereal Time
21:25:46
Azimuth
Unknown
Elevation
Unknown
Doppler factor
Unknown
Orbital elements
Apogee altitude
485.634 km
Perigee altitude
484.449 km
Semi-major axis
6,863.179 km
Eccentricity
0.00009
Inclination
43.0041°
RAAN
357.0645°
Arg. of periapsis
262.3458°
True anomaly
97.7394°
Mean anomaly
97.7296°
Eccentric anomaly
97.7345°
Mean motion
3.81729 °/min
Orbital period
94.31 mins
BSTAR
0.000010863
Loading maneuver chart data...
Computing Atmospheric mass density...
Loading historical data...
Loading historical data...
Loading historical data...
Loading historical data...
Loading historical data...
Loading historical data...
Loading historical data...

Documentation

Showing up to 5 results
|